Location: Chefe Valiua
(16.5342°S, 37.2214°E)
Time: 01:53:54
(UTC+00:00)

CZ-3B R/B - Pass Details

Date: 19 January 2021
Orbit: 157 x 5465 km, 25.6° (Epoch: 07 March)

Event Time Altitude Azimuth Distance (km) Brightness Sun altitude
Rises 18:13:16 0° 251° (WSW) 2,458 6.1 -27.0°
Reaches altitude 10° 18:14:52 10° 241° (WSW) 1,896 5.3 -27.3°
Maximum altitude 18:18:54 37° 171° (S) 1,470 3.8 -28.1°
Enters shadow 18:24:39 20° 116° (ESE) 3,219 5.2 -29.2°
